Other Public Products
Issued by NWS Grand Forks, ND

Home | Current Version | Previous Version | Text Only | Print | Product List | Glossary On
Versions: 1 2 3 4 5 6 7 8 9 10 11 12 13 14 15 16 17 18 19 20 21 22 23 24 25 26 27 28 29 30 31 32 33 34 35 36 37 38 39 40 41 42 43 44 45 46 47 48 49 50
000
FPUS83 KFGF 070910
OPUFGF
PRAIRIE TO PINES WEATHER ROUNDUP
NATIONAL WEATHER SERVICE EASTERN NORTH DAKOTA/GRAND FORKS ND
400 AM CDT TUE JUL 07 2015

 **SATELLITE DATA USED TO AUGMENT SKY COVER AT AUTOMATED STATIONS**
 *****  WEATHER ACROSS EASTERN NORTH DAKOTA  *****

CITY           SKY/WX    TMP DP  RH WIND       PRES   REMARKS
GRAND FORKS    CLEAR     44  42  93 CALM      30.17R
GRAND FORKS AF CLEAR     44  43  94 W3        30.17S
GRAND CITY NWS   N/A     45 N/A N/A MISG        N/A
BUXTON         NOT AVBL
DEVILS LAKE    CLEAR     54  45  71 S7        30.18S
FARGO          CLEAR     46  42  86 CALM      30.18S
WAHPETON ARPT  SUNNY     43  37  81 NW3       30.19R
$$

 *****  WEATHER ACROSS CENTRAL AND WESTERN NORTH DAKOTA  *****

CITY           SKY/WX    TMP DP  RH WIND       PRES   REMARKS
JAMESTOWN      CLEAR     50  46  86 CALM      30.20S
BISMARCK       CLEAR     46  45  96 CALM      30.20S FOG
MINOT          CLEAR     50  44  80 SW6       30.17S
MINOT AFB      CLEAR     45  45 100 SW5       30.16S
GARRISON         N/A     51  48  89 CALM      30.18S
WILLISTON      CLEAR     55  50  83 CALM      30.16S
DICKINSON      PTCLDY    50  47  89 SE8       30.17F FOG
HETTINGER      PTCLDY    52  49  89 E8        30.20S FOG
$$

 *****  OTHER OBSERVATIONS NORTHEAST NORTH DAKOTA  *****

CITY           SKY/WX    TMP DP  RH WIND       PRES   REMARKS
WALHALLA       FAIR      46  46 100 MISG      30.17S
LANGDON        FAIR      41  41 100 SW7       30.18S
CAVALIER       FAIR      46  45  93 CALM      30.16S
GRAFTON        FAIR      48  48 100 W6        30.17S
CANDO          FAIR      45  43  93 SW6       30.19S
FORT TOTTEN      N/A     48  46  92 SE2       29.95S
ROLLA          FAIR      41  41 100 SW5       30.19S
RUGBY          NOT AVBL
 ***** THE ABOVE OBSERVATIONS ARE NON NWS ARE NOT QUALITY
        CONTROLLED AND MAY MIS-REPORT RAIN FOR SNOW...
$$

 *****  OTHER OBSERVATIONS SOUTHEAST NORTH DAKOTA *****

CITY           SKY/WX    TMP DP  RH WIND       PRES   REMARKS
COOPERSTOWN    NOT AVBL
VALLEY CITY    FAIR      45  45 100 CALM      30.20S
OAKES            N/A     46  46 100 W3        30.20R
GWINNER          N/A     50  46  87 NW3       30.20R
SHEYENNE NWR     N/A     45  44  98 W2        29.95S
BUFFALO        NOT AVBL
WYNDMERE         N/A     46  45  93 NW1         N/A
 ***** THE ABOVE OBSERVATIONS ARE NON NWS ARE NOT QUALITY
       CONTROLLED AND MAY MIS-REPORT RAIN FOR SNOW...
$$

  *****  WEATHER ACROSS NORTHERN MINNESOTA  *****

CITY           SKY/WX    TMP DP  RH WIND       PRES   REMARKS
FLAG ISLAND    CLEAR     52  45  76 NW10      30.11S
WARROAD        CLEAR     45  41  87 W3        30.14F
ROSEAU         CLEAR     48  45  87 W8        30.14S
HALLOCK        CLEAR     43  41  93 CALM      30.16R FOG
THF RVR FALLS  CLEAR     48  45  87 CALM      30.17R
HALSTAD        NOT AVBL
FOSSTON        CLEAR     41  39  93 CALM      30.17S
BAUDETTE       CLEAR     46  43  89 W7        30.12S
WASKISH        CLEAR     52  46  82 NW6       30.13S
CROOKSTON      CLEAR     46  45  93 CALM      30.18S
$$
  *****  WEATHER ACROSS CENTRAL AND WEST MINNESOTA  *****

CITY           SKY/WX    TMP DP  RH WIND       PRES   REMARKS
BEMIDJI        CLEAR     43  42  96 W6        30.14S
PARK RAPIDS    CLEAR     47  43  86 NW6       30.15R
WADENA         PTCLDY    46  45  93 NW5       30.15R
DETROIT LAKES  CLEAR     46  45  93 CALM      30.18S
MOORHEAD       CLEAR     46  43  87 CALM      30.19S
FERGUS FALLS   CLEAR     46  46 100 N7        30.18R
ELBOW LAKE     FAIR      51  47  88 N6        30.16S
MORRIS MN      CLEAR     48  46  93 NW6       30.16R
STAPLES        CLEAR     46  45  93 NW6       30.15R
WHEATON        CLEAR     46  45  93 CALM      30.20R
$$
  *****  WEATHER ELSEWHERE ACROSS MINNESOTA  *****

CITY           SKY/WX    TMP DP  RH WIND       PRES   REMARKS
DULUTH         CLOUDY    54  43  66 N5        30.08R
INTRNTL FALLS  CLEAR     39  38  96 CALM      30.10R
ELY            CLOUDY    52  45  76 CALM      30.07R
CLOQUET        CLOUDY    54  41  62 N3        30.09R
BRAINERD       CLEAR     50  45  83 NW6       30.13R
HIBBING        CLEAR     45  42  89 NW3       30.10R
ALEXANDRIA     CLEAR     51  47  86 N5        30.17R
SAINT CLOUD    CLEAR     50  47  89 N5        30.12R
MINNEAPOLIS    CLEAR     55  48  77 NW7       30.09R
$$

  *****  WEATHER ACROSS SOUTH DAKOTA  *****

CITY           SKY/WX    TMP DP  RH WIND       PRES   REMARKS
SIOUX FALLS    CLEAR     52  49  89 N3        30.16R
BROOKINGS      CLEAR     50  45  81 N6        30.18R
WATERTOWN      CLEAR     46  45  96 NE3       30.18R
HURON          CLEAR     52  52 100 W3        30.17R FOG
SISSETON         N/A     46  44  93 NW7       30.18R
ABERDEEN       CLEAR     51  49  92 NE3       30.20R
MITCHELL       CLEAR     55  54  96 NW5       30.18R FOG
PIERRE         CLEAR     55  52  89 E7        30.16S FOG
MOBRIDGE       CLEAR     57  52  83 E8        30.17S
RAPID CITY     PTCLDY    58  55  90 SE6       30.18F
$$

  *****  SOME WEATHER IN NEARBY STATES *****

CITY           SKY/WX    TMP DP  RH WIND       PRES   REMARKS
GLASGOW MT     CLEAR     54  47  77 E12       30.09S
GREAT FALLS MT PTCLDY    55  50  83 CALM      30.07F
CHEYENNE WY    CLOUDY    53  52  96 SE8       30.28F FOG
SCOTTSBLUFF NE CLOUDY    61  56  83 E6        30.21F HAZE
OMAHA NE       CLEAR     58  53  84 N9        30.09S
DES MOINES IA  CLEAR     62  52  69 N15G22    30.01S
DAVENPORT IA   MOCLDY    62  56  80 N9        29.92R HAZE
CHICAGO IL     CLOUDY    71  69  93 W6        29.84S
EAU CLAIRE WI  CLEAR     53  47  79 N5        30.03R
LA CROSSE WI   CLOUDY    61  56  83 N9        29.99R HAZE
$$

  *****  SOME NATIONAL WEATHER *****

CITY           SKY/WX    TMP DP  RH WIND       PRES   REMARKS
LA GUARDIA NY  CLOUDY    75  71  87 S7        30.04S
RALEIGH NC     PTCLDY    71  67  87 CALM      30.09S
ATLANTA GA     CLEAR     71  67  87 CALM      30.14R
NEW ORLEANS LA PTCLDY    81  76  84 SE3       30.11R
OKLAHOMA CITY  CLOUDY    71  70  96 W3        29.93R
ALBUQUERQUE NM TSTM      61  58  90 SE7       30.24F FOG
SALT LAKE CITY MOCLDY    68  61  78 SE8       30.05F
LOS ANGELES CA CLOUDY    64  60  87 CALM      30.00S
BOISE ID       CLOUDY    77  48  35 SE6       29.96R
SEATTLE WA     CLEAR     59  52  77 S7        30.04R
$$

*** WEATHER ACROSS MANITOBA...SASKATCHEWAN AND ONTARIO ***
                ***ONTARIO***

CITY           SKY/WX    TMP DP  RH WIND       PRES   REMARKS
GERALDTON      DRIZZLE   50  45  81 NW9       29.95R
THUNDER BAY    PTCLDY    50  46  87 NW5       30.01S
SIOUX LOOKOUT  PTCLDY    48  46  93 W6        30.05F
TORONTO        PTCLDY    66  57  72 SW6       29.90S
BIG TROUT LK   CLOUDY    54  46  76 W9        29.88S
PICKLE LAKE    NOT AVBL
DRYDEN         CLEAR     46  45  93 W7        30.07S
KENORA         CLEAR     50  39  66 W8        30.11S
$$
                *** MANITOBA***

CITY           SKY/WX    TMP DP  RH WIND       PRES   REMARKS
BRANDON        CLEAR     41  39  93 W3        30.15R
DAUPHIN        CLEAR     54  43  66 SW10      30.08F
ISLAND LAKE    PTCLDY    57  46  67 W9        29.96S
PILOT MOUND      N/A     41  39  93 S6          N/A
THE PAS        CLEAR     52  45  76 S6        29.95F SMOKE
THOMPSON       CLEAR     55  45  67 SW8       29.84F SMOKE
WINNIPEG       CLEAR     50  43  76 SW9       30.14S
LYNN LAKE      HAZE      59  46  63 SW10      29.75F VSB 1
CHURCHILL      PTCLDY    54  50  87 N12       29.71S
GILLAM         CLOUDY    54  48  82 SW10      29.79F SMOKE
$$
                ***SASKATCHEWAN***

CITY           SKY/WX    TMP DP  RH WIND       PRES   REMARKS
ESTEVAN        PTCLDY    45  43  93 S5        30.15S
KINDERSLEY     PTCLDY    54  48  82 W13G20    30.04R
LLOYDMINSTER   CLEAR     52  48  87 SW8       30.01S
PRINCE ALBERT  PTCLDY    54  48  82 SW6       29.99S
REGINA         MOCLDY    50  43  76 S7        30.10F



USA.gov is the U.S. government's official web portal to all federal, state and local government web resources and services.